Weather History for KMWC - March, 2014

Change the Weather History Date:

Tuesday, March 18, 2014

  Actual Average Record
Temperature  
Mean Temperature 35 °F -  
Max Temperature 42 °F 44 °F 78 °F (2012)
Min Temperature 28 °F 27 °F 7 °F (1959)
Degree Days  
Heating Degree Days 30    
Moisture  
Dew Point 28 °F    
Average Humidity 78    
Maximum Humidity 93    
Minimum Humidity 57    
Precipitation  
Precipitation 0.00 in - - ()
Sea Level Pressure  
Sea Level Pressure 29.82 in    
Wind  
Wind Speed 7 mph (SE)    
Max Wind Speed 14 mph    
Max Gust Speed 26 mph    
Visibility 9 miles    
Events      
Averages and records for this station are not official NWS values.
T = Trace of Precipitation, MM = Missing Value Source: NWS Daily Summary

Daily Weather History Graph

Daily Weather History Graph

Search for Another Location

Airport or City:

Trip Planner

Search our weather history database for the weather conditions in past years. The results will help you decide how hot, cold, wet, or windy it might be!

Date:

Astronomy

Mar. 18, 2014 Rise Set
Actual Time 6:58 AM CDT 7:02 PM CDT
Civil Twilight 6:30 AM CDT 7:30 PM CDT
Nautical Twilight 5:57 AM CDT 8:03 PM CDT
Astronomical Twilight 5:23 AM CDT 8:37 PM CDT
Moon 9:23 PM CDT (3/18) 7:44 AM CDT (3/18)
Length of Visible Light 12h 59m
Length of Day
12h 03m
Waning Gibbous, 96% of the Moon is Illuminated
Mar 18
Waning Gibbous
Mar 23
Last Quarter
Mar 30
New
Apr 7
First Quarter
Apr 15
Full

Hourly Weather History & Observations

Time (CDT) Temp. Windchill Dew Point Humidity Pressure Visibility Wind Dir Wind Speed Gust Speed Precip Events Conditions
12:15 AM 30.2 °F 23.4 °F 24.8 °F 80% 29.84 in 10.0 mi SE 6.9 mph - N/A   Clear
12:35 AM 30.2 °F 24.3 °F 24.8 °F 80% 29.83 in 10.0 mi SE 5.8 mph - N/A   Clear
12:55 AM 30.2 °F 25.4 °F 24.8 °F 80% 29.85 in 10.0 mi SSE 4.6 mph - N/A   Clear
1:15 AM 30.2 °F 24.3 °F 24.8 °F 80% 29.84 in 10.0 mi SE 5.8 mph - N/A   Clear
1:35 AM 30.2 °F 22.6 °F 26.6 °F 86% 29.84 in 10.0 mi SE 8.1 mph - N/A   Clear
1:55 AM 30.2 °F 22.6 °F 26.6 °F 86% 29.84 in 10.0 mi SE 8.1 mph - N/A   Clear
2:15 AM 30.2 °F 24.3 °F 26.6 °F 86% 29.84 in 10.0 mi SE 5.8 mph - N/A   Clear
2:35 AM 30.2 °F 24.3 °F 26.6 °F 86% 29.84 in 7.0 mi SE 5.8 mph - N/A   Clear
2:55 AM 30.2 °F 22.6 °F 26.6 °F 86% 29.84 in 7.0 mi SE 8.1 mph - N/A   Clear
3:15 AM 30.2 °F 23.4 °F 26.6 °F 86% 29.84 in 7.0 mi SE 6.9 mph - N/A   Clear
3:35 AM 30.2 °F 24.3 °F 26.6 °F 86% 29.83 in 7.0 mi SE 5.8 mph - N/A   Clear
3:55 AM 30.2 °F 24.3 °F 26.6 °F 86% 29.84 in 7.0 mi SE 5.8 mph - N/A   Clear
4:15 AM 30.2 °F 26.7 °F 26.6 °F 86% 29.84 in 7.0 mi SE 3.5 mph - N/A   Clear
4:35 AM 30.2 °F 25.4 °F 26.6 °F 86% 29.84 in 7.0 mi SE 4.6 mph - N/A   Clear
4:55 AM 30.2 °F 25.4 °F 26.6 °F 86% 29.84 in 7.0 mi SE 4.6 mph - N/A   Clear
5:15 AM 30.2 °F 25.4 °F 26.6 °F 86% 29.84 in 7.0 mi SE 4.6 mph - N/A   Clear
5:35 AM 30.2 °F 23.4 °F 26.6 °F 86% 29.84 in 7.0 mi SE 6.9 mph - N/A   Clear
5:55 AM 30.2 °F 23.4 °F 26.6 °F 86% 29.83 in 7.0 mi SE 6.9 mph - N/A   Clear
6:15 AM 30.2 °F 24.3 °F 26.6 °F 86% 29.84 in 7.0 mi SE 5.8 mph - N/A   Clear
6:35 AM 30.2 °F 24.3 °F 26.6 °F 86% 29.85 in 7.0 mi SE 5.8 mph - N/A   Clear
6:45 AM 28.4 °F 21.2 °F 26.6 °F 93% 29.84 in 7.0 mi SE 6.9 mph - N/A   Clear
7:45 AM 28.4 °F 23.3 °F 26.6 °F 93% 29.86 in 7.0 mi SE 4.6 mph - N/A   Clear
8:45 AM 33.8 °F 27.7 °F 28.4 °F 81% 29.87 in 7.0 mi SSE 6.9 mph - N/A   Clear
9:45 AM 37.4 °F 31.4 °F 28.4 °F 70% 29.88 in 7.0 mi SSE 8.1 mph - N/A   Clear
10:45 AM 39.2 °F 33.6 °F 28.4 °F 65% 29.88 in 10.0 mi SE 8.1 mph - N/A   Clear
11:45 AM 37.4 °F 32.8 °F 28.4 °F 70% 29.89 in 7.0 mi WSW 5.8 mph - N/A   Clear
12:45 PM 39.2 °F 34.2 °F 28.4 °F 65% 29.88 in 10.0 mi ESE 6.9 mph - N/A   Clear
1:45 PM 39.2 °F 31.2 °F 28.4 °F 65% 29.85 in 10.0 mi ESE 13.8 mph 18.4 mph N/A   Clear
2:45 PM 39.2 °F 32.0 °F 28.4 °F 65% 29.84 in 10.0 mi ESE 11.5 mph - N/A   Clear
3:45 PM 42.8 °F 37.0 °F 28.4 °F 57% 29.83 in 10.0 mi SE 10.4 mph 26.5 mph N/A   Clear
4:45 PM 39.2 °F 32.0 °F 28.4 °F 65% 29.82 in 10.0 mi ESE 11.5 mph 17.3 mph N/A   Mostly Cloudy
5:45 PM 37.4 °F 29.8 °F 28.4 °F 70% 29.78 in 10.0 mi ESE 11.5 mph 16.1 mph N/A   Scattered Clouds
6:45 PM 39.2 °F 32.5 °F 28.4 °F 65% 29.76 in 10.0 mi ESE 10.4 mph 16.1 mph N/A   Clear
7:45 PM 39.2 °F 32.0 °F 28.4 °F 65% 29.78 in 10.0 mi ESE 11.5 mph 16.1 mph N/A   Clear
8:45 PM 39.2 °F 33.6 °F 30.2 °F 70% 29.78 in 10.0 mi East 8.1 mph - N/A   Mostly Cloudy
9:15 PM 37.4 °F 31.4 °F 30.2 °F 75% 29.78 in 10.0 mi East 8.1 mph - N/A   Scattered Clouds
9:35 PM 37.4 °F 31.4 °F 32.0 °F 81% 29.78 in 10.0 mi East 8.1 mph - N/A   Clear
9:55 PM 37.4 °F 32.8 °F 30.2 °F 75% 29.78 in 10.0 mi East 5.8 mph - N/A   Mostly Cloudy
10:15 PM 37.4 °F 32.8 °F 30.2 °F 75% 29.78 in 10.0 mi East 5.8 mph - N/A   Overcast
10:35 PM 37.4 °F 30.8 °F 30.2 °F 75% 29.77 in 10.0 mi East 9.2 mph - N/A   Overcast
10:55 PM 37.4 °F 30.8 °F 30.2 °F 75% 29.76 in 10.0 mi East 9.2 mph - N/A   Overcast
11:10 PM 37.4 °F 30.3 °F 30.2 °F 75% 29.75 in 10.0 mi East 10.4 mph - N/A   Overcast
11:35 PM 37.4 °F 30.3 °F 30.2 °F 75% 29.73 in 10.0 mi East 10.4 mph 17.3 mph N/A   Overcast
11:55 PM 35.6 °F 28.0 °F 30.2 °F 81% 29.73 in 10.0 mi East 10.4 mph 16.1 mph N/A   Overcast